CW7532 Weather Reports


time (UTC)temp
F
wind
direction
speed
knots
gust
knots
rain 1hr
in
rain 24hr
in
rain mn
in
humidity
%
barometer
mb
20260906140107 75 232 0.0 0.0 0.00 0.28 0.13 80 1013.4
20260906134605 75 232 0.0 0.0 0.00 0.28 0.13 80 1013.5
20260906133105 74 232 0.0 1.7 0.00 0.28 0.13 80 1013.6
20260906131559 74 236 0.0 0.0 0.00 0.28 0.13 78 1013.7
20260906130110 74 236 0.9 3.5 0.00 0.28 0.13 78 1013.6
20260906124555 74 239 0.9 3.5 0.00 0.28 0.13 77 1013.5
20260906123054 74 59 0.0 2.6 0.00 0.28 0.13 77 1012.8
20260906121606 74 59 0.0 0.0 0.01 0.28 0.13 78 1012.4
20260906120052 73 59 0.0 1.7 0.03 0.28 0.13 79 1012.3
20260906114601 73 61 1.7 3.5 0.04 0.28 0.13 81 1012.2
20260906113103 74 53 0.0 0.0 0.04 0.28 0.13 83 1012.1
20260906111550 75 53 0.9 2.6 0.04 0.27 0.12 85 1012.3
20260906110049 75 315 1.7 6.1 0.02 0.25 0.10 84 1012.4
20260906104549 75 355 2.6 9.6 0.01 0.24 0.09 85 1012.3
20260906103048 74 331 4.3 7.8 0.01 0.24 0.09 85 1012.5
20260906101548 74 351 2.6 8.7 0.00 0.23 0.08 85 1012.8
20260906100046 74 100 2.6 9.6 0.00 0.23 0.08 85 1013.0
20260906094549 74 5 4.3 13.0 0.00 0.23 0.08 85 1013.1
20260906093042 74 19 2.6 11.3 0.00 0.23 0.08 84 1012.9
20260906091546 74 18 0.9 7.0 0.00 0.23 0.08 84 1012.4
20260906090042 74 346 4.3 7.8 0.00 0.23 0.08 81 1012.1
20260906084537 74 101 0.0 1.7 0.01 0.23 0.08 80 1012.1
20260906083036 74 348 1.7 5.2 0.08 0.23 0.08 83 1012.2
20260906081540 75 256 0.0 4.3 0.08 0.23 0.08 80 1012.1
20260906080034 75 210 3.5 5.2 0.08 0.23 0.08 82 1012.2
20260906074528 76 315 5.2 11.3 0.06 0.21 0.06 85 1012.5
20260906073025 78 360 1.7 7.8 0.00 0.15 0.00 77 1012.6
20260906071524 78 41 0.0 0.0 0.00 0.15 0.00 75 1012.6
20260906070023 78 41 0.0 3.5 0.00 0.15 0.00 75 1012.5
20260906064527 78 208 0.0 1.7 0.00 0.15 0.00 75 1012.3
20260906063021 77 211 0.0 4.3 0.00 0.15 0.00 75 1012.0
20260906061519 77 203 0.9 3.5 0.00 0.15 0.00 75 1012.2
20260906060017 77 186 0.9 4.3 0.00 0.15 0.00 75 1012.4
20260906054514 77 205 0.0 2.6 0.00 0.15 0.00 76 1012.7
20260906053013 77 329 0.9 2.6 0.00 0.15 0.00 76 1012.6
20260906051514 76 329 0.0 0.0 0.00 0.15 0.00 78 1012.9
20260906050014 76 329 0.0 0.0 0.00 0.15 0.00 79 1013.1
20260906044506 76 329 0.0 2.6 0.10 0.15 0.15 82 1013.0
20260906043009 77 331 0.0 0.9 0.15 0.15 0.15 84 1013.0
20260906041504 78 329 0.0 2.6 0.15 0.15 0.15 85 1012.9
20260906040008 80 336 0.9 3.5 0.15 0.15 0.15 84 1012.7
20260906034502 81 9 1.7 4.3 0.03 0.03 0.03 83 1013.5
20260906033003 81 90 2.6 5.2 0.00 0.00 0.00 83 1013.5
20260906031503 81 228 0.0 1.7 0.00 0.00 0.00 83 1013.0
20260906030004 81 228 0.0 2.6 0.00 0.00 0.00 83 1012.7
20260906024500 81 227 1.7 2.6 0.00 0.00 0.00 83 1012.6
20260906023112 82 229 0.0 2.6 0.00 0.00 0.00 82 1012.5
20260906023001 82 229 0.0 2.6 0.00 0.00 0.00 82 1012.5
20260906021600 82 230 0.0 1.7 0.00 0.00 0.00 81 1012.4
20260906014559 84 227 0.0 2.6 0.00 0.00 0.00 79 1012.2
20260906013058 85 229 0.9 4.3 0.00 0.00 0.00 75 1011.8
20260906011605 85 279 0.9 2.6 0.00 0.00 0.00 74 1011.4
20260906004600 85 252 0.0 0.9 0.00 0.00 0.00 75 1011.0
20260906003057 86 261 0.0 4.3 0.00 0.00 0.00 73 1011.0
20260906001556 87 222 0.0 6.1 0.00 0.00 0.00 70 1011.0
20260905234556 88 242 3.5 7.0 0.00 0.00 0.00 64 1011.1
20260905233102 89 274 0.0 0.0 0.00 0.00 0.00 64 1011.0
20260905231610 90 274 0.0 2.6 0.00 0.00 0.00 62 1010.9
20260905230059 91 274 0.9 2.6 0.00 0.00 0.00 59 1010.9
20260905224553 92 265 0.9 4.3 0.00 0.00 0.00 55 1010.9
20260905223053 91 108 0.0 0.0 0.00 0.00 0.00 61 1010.7
20260905221603 91 108 0.0 0.0 0.00 0.00 0.00 59 1010.6
20260905220052 92 108 0.0 2.6 0.00 0.00 0.00 58 1010.8
20260905214601 92 121 0.9 3.5 0.00 0.00 0.00 57 1010.8
20260905213052 93 118 1.7 3.5 0.00 0.00 0.00 53 1010.8
20260905211550 95 92 0.9 4.3 0.00 0.00 0.00 50 1010.9
20260905210059 97 85 0.0 6.1 0.00 0.00 0.00 45 1010.9
20260905204546 99 317 0.0 3.5 0.00 0.00 0.00 46 1011.1
20260905203045 99 5 1.7 4.3 0.00 0.00 0.00 43 1011.2
20260905201544 98 82 1.7 7.0 0.00 0.00 0.00 44 1011.3
20260905200046 98 136 1.7 4.3 0.00 0.00 0.00 44 1011.4
20260905194539 97 141 0.9 4.3 0.00 0.00 0.00 45 1011.7
20260905193041 98 120 2.6 7.0 0.00 0.00 0.00 43 1011.9
20260905191534 98 97 0.9 7.0 0.00 0.00 0.00 45 1012.1
20260905190041 98 82 2.6 7.0 0.00 0.00 0.00 44 1012.3
20260905184533 99 71 0.9 5.2 0.00 0.00 0.00 43 1012.5
20260905183026 96 79 2.6 7.8 0.00 0.00 0.00 46 1012.8
20260905181524 96 49 0.9 4.3 0.00 0.00 0.00 44 1013.0
20260905180028 97 76 2.6 5.2 0.00 0.00 0.00 48 1013.3
20260905174517 97 73 1.7 3.5 0.00 0.00 0.00 48 1013.5
20260905173016 96 27 0.9 7.0 0.00 0.00 0.00 50 1013.7
20260905171516 94 43 0.0 1.7 0.00 0.00 0.00 55 1013.8
20260905170015 94 38 0.0 4.3 0.00 0.00 0.00 53 1014.1
20260905164512 93 175 0.0 6.1 0.00 0.00 0.00 54 1014.3
20260905163010 97 312 0.9 4.3 0.00 0.00 0.00 49 1014.3
20260905161521 97 90 1.7 5.2 0.00 0.00 0.00 50 1014.5
20260905160007 96 15 2.6 7.0 0.00 0.00 0.00 51 1014.5
20260905154503 94 336 3.5 8.7 0.00 0.00 0.00 53 1014.5
20260905153002 95 112 2.6 6.1 0.00 0.00 0.00 52 1014.5
20260905151559 94 28 1.7 4.3 0.00 0.00 0.00 53 1014.6
20260905150056 93 5 2.6 6.1 0.00 0.00 0.00 54 1014.6
20260905144552 92 25 3.5 7.8 0.00 0.00 0.00 57 1014.6
20260905143048 89 5 1.7 4.3 0.00 0.00 0.00 62 1014.7
20260905141544 87 355 0.9 6.1 0.00 0.00 0.00 69 1014.7